| time (UTC) | temp C | wind direction | speed KPH | gust KPH | rain 1hr cm | rain 24hr cm | rain mn cm | humidity % | barometer mb |
| 20260507193016 | 12 | 135 | 3.2 | 11.3 | 0.00 | 0.00 | 0.00 | 84 | 1017.3 |
| 20260507190017 | 12 | 135 | 3.2 | 9.7 | 0.00 | 0.00 | 0.00 | 81 | 1017.4 |
| 20260507183017 | 12 | 135 | 3.2 | 12.9 | 0.00 | 0.00 | 0.00 | 80 | 1017.1 |
| 20260507180016 | 13 | 135 | 4.8 | 12.9 | 0.00 | 0.00 | 0.00 | 74 | 1017.0 |
| 20260507173017 | 13 | 135 | 4.8 | 12.9 | 0.00 | 0.00 | 0.00 | 75 | 1017.0 |
| 20260507170036 | 15 | 135 | 4.8 | 12.9 | 0.00 | 0.00 | 0.00 | 65 | 1017.2 |
| 20260507163017 | 15 | 135 | 3.2 | 16.1 | 0.00 | 0.00 | 0.00 | 67 | 1017.4 |
| 20260507160016 | 15 | 135 | 4.8 | 14.5 | 0.00 | 0.00 | 0.00 | 64 | 1017.6 |
| 20260507153016 | 15 | 135 | 3.2 | 14.5 | 0.00 | 0.00 | 0.00 | 64 | 1017.6 |
| 20260507150016 | 15 | 135 | 4.8 | 19.3 | 0.00 | 0.00 | 0.00 | 72 | 1017.7 |
| 20260507143016 | 15 | 135 | 4.8 | 16.1 | 0.00 | 0.00 | 0.00 | 73 | 1017.8 |
| 20260507140016 | 15 | 135 | 4.8 | 17.7 | 0.00 | 0.00 | 0.00 | 77 | 1018.1 |
| 20260507133016 | 15 | 135 | 4.8 | 20.9 | 0.00 | 0.00 | 0.00 | 74 | 1018.0 |
| 20260507130016 | 15 | 135 | 4.8 | 20.9 | 0.00 | 0.00 | 0.00 | 75 | 1018.0 |
| 20260507123016 | 15 | 225 | 4.8 | 22.5 | 0.00 | 0.00 | 0.00 | 75 | 1018.0 |
| 20260507120036 | 15 | 225 | 6.4 | 19.3 | 0.00 | 0.00 | 0.00 | 74 | 1018.2 |
| 20260507113016 | 15 | 180 | 4.8 | 22.5 | 0.00 | 0.00 | 0.00 | 72 | 1018.1 |
| 20260507110016 | 15 | 180 | 4.8 | 19.3 | 0.00 | 0.00 | 0.00 | 75 | 1018.3 |
| 20260507103016 | 14 | 135 | 4.8 | 16.1 | 0.00 | 0.00 | 0.00 | 73 | 1018.2 |
| 20260507100016 | 13 | 135 | 4.8 | 16.1 | 0.00 | 0.00 | 0.00 | 72 | 1018.2 |
| 20260507093016 | 13 | 135 | 6.4 | 17.7 | 0.00 | 0.00 | 0.00 | 76 | 1018.3 |
| 20260507090016 | 13 | 135 | 6.4 | 17.7 | 0.00 | 0.00 | 0.00 | 81 | 1018.2 |
| 20260507083016 | 12 | 135 | 4.8 | 17.7 | 0.00 | 0.00 | 0.00 | 83 | 1018.2 |
| 20260507080015 | 12 | 135 | 3.2 | 9.7 | 0.00 | 0.00 | 0.00 | 82 | 1018.3 |
| 20260507073016 | 11 | 90 | 1.6 | 9.7 | 0.00 | 0.00 | 0.00 | 83 | 1018.0 |
| 20260507070016 | 10 | 0.0 | 4.8 | 0.00 | 0.00 | 0.00 | 86 | 1017.9 | |
| 20260507063036 | 8 | 0.0 | 0.0 | 0.00 | 0.00 | 0.00 | 87 | 1017.8 | |
| 20260507060015 | 7 | 0.0 | 4.8 | 0.00 | 0.00 | 0.00 | 88 | 1017.7 | |
| 20260507053015 | 7 | 0.0 | 6.4 | 0.00 | 0.00 | 0.00 | 89 | 1017.4 | |
| 20260507050017 | 6 | 0.0 | 1.6 | 0.00 | 0.00 | 0.00 | 89 | 1017.3 | |
| 20260507043017 | 6 | 0.0 | 1.6 | 0.00 | 0.00 | 0.00 | 89 | 1017.4 | |
| 20260507040037 | 5 | 0.0 | 3.2 | 0.00 | 0.00 | 0.00 | 89 | 1017.4 | |
| 20260507033017 | 5 | 0.0 | 1.6 | 0.00 | 0.00 | 0.00 | 89 | 1017.2 | |
| 20260507030017 | 5 | 0.0 | 3.2 | 0.00 | 0.00 | 0.00 | 89 | 1017.2 | |
| 20260507023057 | 5 | 0.0 | 1.6 | 0.00 | 0.00 | 0.00 | 88 | 1017.2 | |
| 20260507020017 | 5 | 0.0 | 0.0 | 0.00 | 0.00 | 0.00 | 87 | 1017.1 | |
| 20260507013037 | 6 | 0.0 | 1.6 | 0.00 | 0.00 | 0.00 | 86 | 1017.1 | |
| 20260507010017 | 6 | 0.0 | 1.6 | 0.00 | 0.00 | 0.00 | 85 | 1017.2 | |
| 20260507003037 | 7 | 0.0 | 1.6 | 0.00 | 0.00 | 0.00 | 83 | 1017.2 | |
| 20260507000017 | 7 | 0.0 | 0.0 | 0.00 | 0.00 | 0.00 | 83 | 1017.2 | |
| 20260506233017 | 7 | 0.0 | 0.0 | 0.00 | 0.00 | 0.00 | 80 | 1017.1 | |
| 20260506230017 | 8 | 0.0 | 1.6 | 0.00 | 0.00 | 0.00 | 79 | 1017.1 | |
| 20260506223017 | 8 | 0.0 | 3.2 | 0.00 | 0.00 | 0.00 | 78 | 1017.0 | |
| 20260506220017 | 10 | 0.0 | 3.2 | 0.00 | 0.00 | 0.00 | 72 | 1016.9 | |
| 20260506213017 | 11 | 0.0 | 4.8 | 0.00 | 0.00 | 0.00 | 69 | 1016.7 | |
| 20260506210037 | 12 | 0.0 | 1.6 | 0.00 | 0.00 | 0.00 | 69 | 1016.5 | |
| 20260506203037 | 12 | 0.0 | 3.2 | 0.00 | 0.00 | 0.00 | 66 | 1016.4 |